www.pogodaiklimat.ru

Погода и климат >> Архив погоды >> Иран >> Abu Musa Island


ПОГОДА в Abu Musa Island

  • Прогноз погоды в Abu Musa Island
  • Монитор погоды в Abu Musa Island
  • Климат города

АРХИВ ПОГОДЫ в Abu Musa Island

Время (UTC), дата Ветер
(напр.,м/с)
 
Видим.   Явления Облачность Т
(С)
Тd
(С)
f
(%)
Тe
(С)
Тes
(С)
Комфортность P
(гПа)
Po
(гПа)
Тmin
(С)
Tmax
(С)
R
(мм)
R24
(мм)
S
(см)
03 13.07 штиль 0 2000 м дымка 5/0
[Ac und]
+32.6 +31.8 96 +67 +68 опасность
перегрева
992.1 991.4 +31.8
06 13.07 СВ 4 3500 м дымка 5/0
[Ac und]
+34.0 +31.7 88 +68 +75 опасность
перегрева
993.5 992.7
09 13.07 СВ 3 3500 м мгла 3/0
[Ac und]
+35.6 +29.5 71 +61 +75 опасность
перегрева
993.3 992.6
12 13.07 СВ 4 3000 м мгла ясно +35.6 992.3 991.5
15 13.07 СВ 3 3500 м мгла ясно +35.4 +26.7 61 +53 +53 опасность
перегрева
991.0 990.3 +39.8
03 14.07 ЮВ 2 1500 м дымка ясно +30.8 +30.0 96 +57 +59 опасность
перегрева
992.7 991.9 +29.8
06 14.07 ЮВ 3 4000 м мгла ясно +35.2 994.3 993.6
09 14.07 СВ 5 4500 м мгла ясно +35.4 +30.2 75 +63 +75 опасность
перегрева
993.7 992.9
12 14.07 СВ 4 4000 м мгла ясно +36.2 992.2 991.5
15 14.07 СЗ 3 3500 м мгла ясно +35.2 +28.5 68 +57 +57 опасность
перегрева
991.4 990.7 +39.0
03 15.07 штиль 0 1500 м дымка 1/1 600 м
[St]
+30.0 +28.9 94 +52 +55 опасность
перегрева
993.3 992.6 +28.0
06 15.07 ЮЗ 2 4000 м мгла ясно +33.4 994.5 993.8
09 15.07 ЮЗ 2 4000 м мгла 3/3 750 м
[Sc]
+34.8 +26.9 64 +53 +68 опасность
перегрева
994.1 993.4
12 15.07 З 3 4000 м мгла ясно +35.0 992.6 991.8
15 15.07 З 3 4500 м мгла ясно +33.6 +27.6 71 +53 +53 опасность
перегрева
991.5 990.8 +37.2
03 16.07 штиль 0 5000 м дымка ясно +29.8 +29.3 97 +53 +56 опасность
перегрева
992.0 991.3 +28.2
06 16.07 ЮВ 3 10 км ясно +34.6 992.8 992.1
09 16.07 ЮЗ 3 6000 м мгла ясно +35.0 +28.0 67 +56 +73 опасность
перегрева
992.6 991.9
12 16.07 ЮЗ 3 5000 м мгла ясно +36.8 991.8 991.1
15 16.07 З 4 4000 м мгла ясно +33.8 +28.7 75 +57 +57 опасность
перегрева
991.2 990.5 +37.6
03 17.07 С 3 6000 м дымка ясно +30.4 +29.9 97 +56 +57 опасность
перегрева
992.4 991.6 +29.8
06 17.07 ЮЗ 3 7000 м дымка ясно +33.0 994.3 993.5
09 17.07 З 3 5000 м мгла ясно +34.4 +27.6 68 +54 +72 опасность
перегрева
993.5 992.7
12 17.07 ЮЗ 2 4500 м мгла ясно +35.0 991.5 990.8
15 17.07 З 5 4000 м мгла ясно +32.8 +27.9 76 +53 +53 опасность
перегрева
992.1 991.4 +35.6
03 18.07 ЮЗ 4 7000 м мгла ясно +30.2 +24.6 72 +43 +44 опасность
перегрева
995.0 994.2 +29.6
06 18.07 ЮЗ 4 10 км ясно +31.6 996.4 995.6
09 18.07 ЮЗ 3 10 км ясно +33.0 +23.0 56 +43 +61 опасность
перегрева
996.0 995.2
12 18.07 ЮЗ 3 7000 м мгла ясно +36.0 995.3 994.5
15 18.07 З 3 5000 м мгла ясно +34.8 +25.4 58 +49 +49 опасность
перегрева
994.2 993.4 +37.2
03 19.07 СЗ 4 5000 м дымка 4/4 600 м
[St]
+30.0 +27.0 84 +47 +48 опасность
перегрева
997.3 996.6 +29.2
06 19.07 СЗ 2 6000 м мгла 3/3 600 м
[Sc]
+31.0 +24.5 68 +43 +54 опасность
перегрева
998.3 997.5
09 19.07 З 2 5000 м мгла ясно +34.6 +26.4 63 +52 +73 опасность
перегрева
997.1 996.4
12 19.07 З 3 5000 м мгла ясно +36.2 996.4 995.7

 

Местоположение метеостанции Abu Musa Island (Иран): широта 25.83 долгота 54.83 высота над уровнем моря 6 м.

В архиве по умолчанию представлена погода в Abu Musa Island за последнюю неделю. Архивные данные за месяц целиком и за предыдущие месяцы, начиная с января 2011 года, Вы можете получить, выбрав интересующий диапазон дат из раскрывающегося списка и нажав кнопку "Ввод!".


*Определитесь, кто Вы:
робот инопланетянин человек

Внимание! Время в таблицах - всемирное. Для получения местного времени необходимо прибавить поправку, которая в Abu Musa Island равна 3.5 ч.

Смотрите также архив погоды в соседних городах и на ближайших метеорологических станциях:

Погода в Sirri Island (Иран) (29 км)
Погода в Dubai (ОАЭ) (82 км)
Погода в Bandar Lengeh (Иран) (83 км)
Погода в Sharjah (ОАЭ) (89 км)
Погода в Dubai Al Maktoum Int Airport (ОАЭ) (109 км)
Погода в Ras Al Khaimah Int Airport (ОАЭ) (113 км)
Погода в Kish Island (Иран) (113 км)
Погода в Diba (Оман) (144 км)
Погода в Khasab Airport (Оман) (145 км)
Погода в Khasab (Оман) (147 км)

Пояснения к столбцам:

Ветер - указаны скорость ветра в м/с - средняя за 10 мин, порывы в срок и между сроками (в фигурных скобках) и направление, откуда дует ветер: С - северный, СВ - северо-восточный, В - восточный, ЮВ - юго-восточный, Ю - южный, ЮЗ - юго-западный, З - западный, СЗ - северо-западный.
Видимость - горизонтальная дальность видимости в метрах или километрах. При видимости от 1 до 10 км при отсутствии осадков обычно наблюдается дымка, при ухудшении видимости до 1 км и менее - туман. В сухую погоду видимость может ухудшаться дымом, пылью или мглою.
Явления - указаны атмосферные явления, наблюдавшиеся в срок или в последний час перед сроком; фигурными скобками обозначены явления, наблюдавшиеся между сроками (за 1-3 часа до срока); квадратными скобками обозначены град или гололедные отложения с указанием их диаметра в мм.
Облачность - указаны через наклонную черту общая и нижняя облачность в баллах и высота нижней границы облаков в метрах; квадратными скобками обозначены формы облаков: Ci - перистые, Cs - перисто-слоистые, Cc - перисто-кучевые, Ac - высококучевые, As - высокослоистые, Sc - слоисто-кучевые, Ns - слоисто-дождевые, Cu - кучевые, Cb - кучево-дождевые. Подробнее классификацию облаков см. в Атласе облаков (PDF).
T - Температура воздуха - температура, измеренная на высоте 2 м над землей.
Td - Температура точки росы - температура, при понижении до которой содержащийся в воздухе водяной пар достигнет насыщения.
f - Относительная влажность воздуха - влажноcть воздуха, измеренная на высоте 2 м над землей.
Te - Эффективная температура - температура, которую ощущает одетый по сезону человек в тени. Характеристика душности погоды. При расчете учитывается влияние влажности воздуха и скорости ветра на теплоощущения человека.
Tes - Эффективная температура на солнце - температура, которую ощущает человек, с поправкой на солнечный нагрев. Характеристика знойности погоды. Зависит от высоты солнца над горизонтом, облачности и скорости ветра. Ночью, в пасмурную погоду, а также при ветре 12 м/с и более поправка равна нулю.
P - Атмосферное давление - приведенное к уровню моря атмосферное давление.
Po - Атмосферное давление - измеренное на уровне метеостанции атмосферное давление.
Tmin - Минимальная температура - минимум температуры воздуха на высоте 2 м над землей.
Tmax - Максимальная температура - максимум температуры воздуха на высоте 2 м над землей.
R - Количество осадков - Количество выпавших осадков за период времени, мм. При наведении курсора мыши на число - период времени, за который выпало указанное количество осадков.
R24 - Количество осадков - Количество выпавших осадков за 24 часа, мм.
S - Снежный покров - Высота снежного покрова, см. При наведении курсора мыши на число - состояние снежного покрова и степень покрытия местности в баллах.